SL-16 DEB, 42239

Orbit data source: Space-Track

SL-16 DEB, 42239 is space debris in LEO originally from a launch on Fri, 26 Mar 1993 UTC launched from the Tyuratam Missile And Space Complex (TTMTR). Debris objects in space refer to the collection of defunct objects orbiting the Earth. Examples of debris include non-operational satellites, rocket bodies, and fragments generated from explosions, collisions, or faulty payload assembly.

Loading next visibility...
Identifier
42239, 1993-016CT
Orbit
LEO
Country
Flag of CISCIS
Related business
Manufacturer
Unknown
Mission
Spacecraft
Bus & Motor
Unknown
Mass
Unknown
Launch date (UTC)
1993-03-26 (33 years ago)
Launch vehicle
Unknown
Launch site
Tyuratam Missile And Space Complex (TTMTR)
Object type
Payload
Rocket body
Debris
Shape & HBR
Unknown shape, 0.1 m
Radar Cross Section
Small (<0.1 m²)

Expand to show TLE details & history
Last TLE update: 2 days ago

TLE from 2 days ago
0 SL-16 DEB
1 42239U 93016CT  25288.57530215  .00016383  00000-0  47192-2 0  9998
2 42239  71.1267  34.8164 0090292 267.3004  91.7797 14.42379821899160
Epoch: 2025-10-15T13:48Z
TLE epoch observation values (Epoch: 2025-10-15T13:48:26.105Z)
Latitude
0.00002°
Longitude
163.36023°
Altitude
755.666 km
Speed
7.476 km/s
True Right ascension
02h 19m 15s
True Declination
0° 00' 00"
Sunlit
Object was in full shadow at epoch
Visualization orbit readout
Latitude
Unknown
Longitude
Unknown
Altitude
Unknown
Speed
Unknown
Apparent Right ascension
Unknown
Apparent Declination
Unknown
Sunlit
N/A
Visualization observer readout
Local Sidereal Time
19:24:48
Azimuth
Unknown
Elevation
Unknown
Doppler factor
Unknown
Orbital elements
Apogee altitude
812.88 km
Perigee altitude
684.183 km
Semi-major axis
7,126.669 km
Eccentricity
0.00903
Inclination
71.1267°
RAAN
34.8164°
Arg. of periapsis
267.3004°
True anomaly
92.81345°
Mean anomaly
91.7797°
Eccentric anomaly
92.29662°
Mean motion
3.60756 °/min
Orbital period
99.79 mins
BSTAR
0.0047192
Loading maneuver chart data...
Computing Atmospheric mass density...
Loading historical data...
Loading historical data...
Loading historical data...
Loading historical data...
Loading historical data...
Loading historical data...
Loading historical data...

Documentation

Showing up to 5 results
|